Watsonville, CA

10:59 PM PDT on August 21, 2017 (GMT -0700)
Watsonville Municipal

Weather History for KWVI - January, 2012

Change the Weather History Date:

Tuesday, January 3, 2012

  Actual Average Record
Temperature  
Mean Temperature 54 °F 50 °F  
Max Temperature 67 °F 61 °F 74 °F (2001)
Min Temperature 41 °F 39 °F 32 °F (2013)
Degree Days  
Heating Degree Days 11    
Month to date heating degree days 29  
Since 1 July heating degree days 1163  
Cooling Degree Days 0    
Month to date cooling degree days 0  
Year to date cooling degree days 0  
Growing Degree Days 4 (Base 50)    
Moisture  
Dew Point 44 °F    
Average Humidity 71    
Maximum Humidity 89    
Minimum Humidity 52    
Precipitation  
Precipitation 0.00 in - 1.54 in (2017)
Month to date precipitation 0.00  
Year to date precipitation 0.00  
Since 1 July precipitation 4.29  
Sea Level Pressure  
Sea Level Pressure 30.29 in    
Wind  
Wind Speed 1 mph (WNW)    
Max Wind Speed 5 mph    
Max Gust Speed 15 mph    
Visibility 8 miles    
Events      
T = Trace of Precipitation, MM = Missing Value Source: NWS Daily Summary

Daily Weather History Graph

Daily Weather History Graph

Search for Another Location

Airport or City:

Trip Planner

Search our weather history database for the weather conditions in past years. The results will help you decide how hot, cold, wet, or windy it might be!

Date:

Astronomy

Jan. 03, 2012 Rise Set
Actual Time 7:20 AM PST 5:02 PM PST
Civil Twilight 6:51 AM PST 5:31 PM PST
Nautical Twilight 6:19 AM PST 6:03 PM PST
Astronomical Twilight 5:47 AM PST 6:35 PM PST
Moon 12:51 PM PST (1/3) 2:18 AM PST (1/3)
Length of Visible Light 10h 39m
Length of Day
9h 42m
Waxing Gibbous, 73% of the Moon is Illuminated
Jan 3
Waxing Gibbous
Jan 8
Full
Jan 16
Last Quarter
Jan 22
New
Jan 30
First Quarter

Hourly Weather History & Observations

Time (PST) Temp. Windchill Dew Point Humidity Pressure Visibility Wind Dir Wind Speed Gust Speed Precip Events Conditions
12:53 AM 45.0 °F - 39.0 °F 80% 30.30 in 10.0 mi Calm Calm - N/A   Clear
1:53 AM 44.1 °F 42.5 °F 39.9 °F 85% 30.31 in 10.0 mi West 3.5 mph - N/A   Clear
2:53 AM 44.1 °F 42.5 °F 39.0 °F 82% 30.32 in 10.0 mi NW 3.5 mph - N/A   Clear
3:53 AM 43.0 °F - 39.0 °F 86% 30.31 in 10.0 mi Calm Calm - N/A   Clear
4:53 AM 43.0 °F - 39.0 °F 86% 30.30 in 10.0 mi Calm Calm - N/A   Clear
5:53 AM 43.0 °F 41.3 °F 39.0 °F 86% 30.30 in 6.0 mi NNE 3.5 mph - N/A   Clear
6:53 AM 42.1 °F - 39.0 °F 89% 30.31 in 5.0 mi Calm Calm - 0.01 in   Clear
7:53 AM 42.1 °F 39.2 °F 39.0 °F 89% 30.32 in 6.0 mi WNW 4.6 mph - N/A   Clear
8:53 AM 46.9 °F - 42.1 °F 83% 30.34 in 6.0 mi Calm Calm - N/A   Haze
9:53 AM 53.1 °F - 45.0 °F 74% 30.34 in 9.0 mi Calm Calm - N/A   Clear
10:53 AM 57.0 °F - 46.0 °F 67% 30.32 in 7.0 mi Calm Calm - N/A   Clear
11:53 AM 61.0 °F - 48.0 °F 62% 30.29 in 10.0 mi Variable 3.5 mph - N/A   Clear
12:53 PM 64.9 °F - 46.0 °F 50% 30.27 in 10.0 mi Calm Calm - N/A   Clear
1:53 PM 62.1 °F - 48.9 °F 62% 30.25 in 10.0 mi SSW 4.6 mph - N/A   Clear
2:53 PM 66.9 °F - 48.0 °F 51% 30.24 in 10.0 mi Calm Calm - N/A   Clear
3:53 PM 66.0 °F - 48.9 °F 54% 30.25 in 10.0 mi Calm Calm - N/A   Clear
4:53 PM 57.9 °F - 46.0 °F 65% 30.25 in 10.0 mi SSE 3.5 mph - N/A   Clear
5:53 PM 53.1 °F - 46.0 °F 77% 30.27 in 4.0 mi Calm Calm - N/A   Haze
6:53 PM 52.0 °F - 46.9 °F 83% 30.29 in 6.0 mi Calm Calm - N/A   Haze
7:53 PM 51.1 °F - 46.0 °F 83% 30.30 in 10.0 mi Calm Calm - N/A   Clear
8:53 PM 51.1 °F - 46.0 °F 83% 30.30 in 10.0 mi Calm Calm - N/A   Clear
9:53 PM 48.0 °F - 44.1 °F 86% 30.30 in 7.0 mi Calm Calm - N/A   Clear
10:53 PM 48.0 °F - 44.1 °F 86% 30.30 in 8.0 mi Calm Calm - N/A   Clear